sat.trackr.live / text

‹ back to catalog

STARLINK-36999

NORAD 68268 · 2026-055G

PAYLOAD ACTIVE UNKNOWN

§ Identity

Operator
Country
US
Launch date
2026-03-19
Launch site
AFETR
Launch vehicle
Mass (kg)
RCS (m²)

Purposes: comms

External: N2YO · Heavens-Above · Gunter

§ Orbital elements

Epoch: 2026-09-20T00:34:13.786752Z

Period
93.85 min
Inclination
53.1601°
Eccentricity
0.0001161
Mean motion
15.34423764 rev/d
Perigee alt
461.8 km
Apogee alt
463.4 km
Semi-major
6,840.8 km
B*
4.1993e-4
RAAN
131.6574°
Arg perigee
104.9750°
Mean anomaly
255.1381°
Rev number
2,975

§ Raw data

STARLINK-369991 68268U 26055G   26263.02377068  .00013849  00000+0  41993-3 0  99932 68268  53.1601 131.6574 0001161 104.9750 255.1381 15.34423764 29757

JSON: /api/v1/satellites/68268 · /tle

For live sub-satellite position, see the globe view (requires WebGL).

§ Visibility from observer

Set your observer location to see the next 7 days of passes ≥ 10°. The values pass through the URL so the page stays shareable.

No JS? Fill the form by hand. The geolocation button needs JavaScript.